Regional Weather Roundup
Issued by NWS

Home | Current Version | Previous Version | Graphics & Text | Print | Product List | Glossary On
Versions: 1 2 3 4 5 6 7 8 9 10 11 12 13 14 15 16 17 18 19 20 21 22 23 24 25 26 27 28 29 30 31 32 33 34 35 36 37 38 39 40 41 42 43 44 45 46 47 48 49 50
000
ASUS43 KIND 281259
RWRIN

WEATHER ROUNDUP FOR INDIANA
NATIONAL WEATHER SERVICE INDIANAPOLIS IN
800 AM EST SAT FEB 28 2015

NOTE: "FAIR" INDICATES FEW OR NO CLOUDS BELOW 12,000 FEET WITH NO
SIGNIFICANT WEATHER AND/OR OBSTRUCTIONS TO VISIBILITY.

* - STATION DOES NOT REPORT WEATHER SUCH AS PRECIPITATION OR FOG.

+ - STATION NOT QUALITY CONTROLLED BY THE NATIONAL WEATHER SERVICE.
    USE DATA WITH CAUTION...ESPECIALLY DEWPOINT AND RELATIVE
    HUMIDITY OBSERVATIONS.

INZ001>003-010>013-019-020-281400-
NORTHWEST INDIANA

CITY           SKY/WX    TMP DP  RH WIND       PRES   REMARKS
GARY /AIRPORT/ PTCLDY    -8 -15  71 CALM      30.73R
KNOX *+          N/A     -6 -20  49 CALM      30.72S
MONTICELLO +   MOCLDY     3  -2  79 CALM      30.72R
VALPARAISO     NOT AVBL

$$

LMZ046-743>745-281400-
SOUTHERN LAKE MICHIGAN

STATION/POSITION TIME  TEMP WIND        PRES
                       AIR  DIR/SP/G
                 (UTC) (F)  (DEG/KT/KT) (MB)
MICHIGAN CITY    1200    2  150/  5/  5   N/A

$$

INZ004-005-014>016-021>024-281400-
NORTH CENTRAL INDIANA

CITY           SKY/WX    TMP DP  RH WIND       PRES   REMARKS
GOSHEN         PTCLDY    -7 -12  79 CALM      30.71R
SOUTH BEND     PTCLDY    -6 -12  75 CALM      30.71R

$$

INZ006>009-017-018-025>027-281400-
NORTHEAST INDIANA

CITY           SKY/WX    TMP DP  RH WIND       PRES   REMARKS
ANGOLA *+      CLEAR    -11 -17  77 CALM      30.69R
FORT WAYNE     MOCLDY     2  -2  83 CALM      30.73R

$$

INZ028-029-035-036-043>045-051>053-281400-
WEST CENTRAL INDIANA

CITY           SKY/WX    TMP DP  RH WIND       PRES   REMARKS
CRAWFORDSVL +  CLOUDY     7  -3  63 E3        30.70S
GREENCASTLE +  CLOUDY    10   1  67 CALM      30.69S
LAFAYETTE      CLOUDY     7  -1  70 E5        30.73R WCI  -2
TERRE HAUTE    CLOUDY    13   3  64 NE6       30.70S WCI   4

$$

INZ030>032-037>040-046>048-054>057-064-065-281400-
CENTRAL INDIANA

CITY           SKY/WX    TMP DP  RH WIND       PRES   REMARKS
CP ATTERBURY + MOCLDY     9   3  78 CALM      30.71S
COLUMBUS       CLOUDY     9   1  72 CALM      30.71S
FRANKFORT +    PTCLDY     9   3  77 E7        30.71S WCI  -3
GREENWOOD *+   PTCLDY    10  -2  56 CALM      30.70R
INDIANAPOLIS   CLOUDY    12   2  64 E5        30.69R WCI   4
-EAGLE CREEK   CLOUDY    10   2  69 E5        30.70R WCI   2
KOKOMO *+      PTCLDY     5   0  78 E3        30.72R
MT COMFORT *+  PTCLDY     9  -4  56 CALM      30.70R
SHELBYVILLE    CLOUDY    12   2  64 SE5       30.70R WCI   4
ZIONSVILLE +   CLOUDY     9   1  69 CALM      30.70R

$$

INZ033-034-041-042-049-050-058-059-281400-
EAST CENTRAL INDIANA

CITY           SKY/WX    TMP DP  RH WIND       PRES   REMARKS
MUNCIE         CLOUDY     5   0  79 E5        30.70R WCI  -4

$$

INZ060-061-067>069-081>083-085>088-281400-
SOUTHWEST INDIANA

CITY           SKY/WX    TMP DP  RH WIND       PRES   REMARKS
EVANSVILLE     CLOUDY    21   8  57 E7        30.68R WCI  12
HUNTINGBURG *+ CLOUDY    18   5  57 E9        30.67S WCI   6

$$

INZ062-063-066-070>080-084-089>092-281400-
SOUTH CENTRAL AND SOUTHEAST INDIANA

CITY           SKY/WX    TMP DP  RH WIND       PRES   REMARKS
BLOOMINGTON    CLOUDY    13   2  61 E6        30.67S WCI   4
SEYMOUR +      CLOUDY    14   3  62 CALM      30.71R

$$



USA.gov is the U.S. government's official web portal to all federal, state and local government web resources and services.